TimeICT,TemperatureF,Dew PointF,Humidity,Sea Level PressureIn,VisibilityMPH,Wind Direction,Wind SpeedMPH,Gust SpeedMPH,PrecipitationIn,Events,Conditions,WindDirDegrees,DateUTC
12:00 AM,78.8,73.4,83,29.80,5.6,Calm,Calm,-,N/A,,Mostly Cloudy,0,2013-07-08 17:00:00
12:30 AM,78.8,73.4,83,29.80,5.6,Calm,Calm,-,N/A,,Mostly Cloudy,0,2013-07-08 17:30:00
7:00 AM,78.8,71.6,78,29.77,5.6,WSW,5.8,-,N/A,,Mostly Cloudy,250,2013-07-09 00:00:00
7:30 AM,78.8,71.6,78,29.77,5.6,SW,5.8,-,N/A,,Mostly Cloudy,220,2013-07-09 00:30:00
8:00 AM,80.6,73.4,79,29.80,6.2,SW,4.6,-,N/A,,Mostly Cloudy,220,2013-07-09 01:00:00
8:30 AM,80.6,73.4,79,29.80,6.2,SW,4.6,-,N/A,,Mostly Cloudy,220,2013-07-09 01:30:00
9:00 AM,82.4,71.6,70,29.77,6.2,SW,4.6,-,N/A,,Mostly Cloudy,220,2013-07-09 02:00:00
9:30 AM,84.2,71.6,66,29.77,6.2,SW,4.6,-,N/A,,Mostly Cloudy,220,2013-07-09 02:30:00
10:00 AM,84.2,71.6,66,29.77,6.2,South,4.6,-,N/A,,Mostly Cloudy,180,2013-07-09 03:00:00
10:30 AM,84.2,71.6,66,29.77,6.2,South,4.6,-,N/A,,Mostly Cloudy,180,2013-07-09 03:30:00
11:00 AM,86.0,71.6,62,29.77,6.2,South,5.8,-,N/A,,Mostly Cloudy,170,2013-07-09 04:00:00
11:30 AM,86.0,71.6,62,29.77,6.2,South,5.8,-,N/A,,Mostly Cloudy,170,2013-07-09 04:30:00
12:00 PM,86.0,71.6,62,29.77,6.2,Calm,Calm,-,N/A,,Mostly Cloudy,0,2013-07-09 05:00:00
12:30 PM,86.0,73.4,66,29.74,6.2,SW,5.8,-,N/A,,Mostly Cloudy,220,2013-07-09 05:30:00
1:00 PM,86.0,71.6,62,29.74,6.2,WSW,8.1,-,N/A,,Mostly Cloudy,240,2013-07-09 06:00:00
1:30 PM,86.0,71.6,62,29.74,6.2,WSW,5.8,-,N/A,,Mostly Cloudy,250,2013-07-09 06:30:00
2:00 PM,86.0,71.6,62,29.71,6.2,WSW,5.8,-,N/A,,Mostly Cloudy,250,2013-07-09 07:00:00
2:30 PM,86.0,71.6,62,29.71,6.2,WSW,5.8,-,N/A,,Mostly Cloudy,250,2013-07-09 07:30:00
3:00 PM,86.0,73.4,66,29.71,6.2,WSW,8.1,-,N/A,,Mostly Cloudy,250,2013-07-09 08:00:00
3:30 PM,84.2,73.4,70,29.68,6.2,WSW,5.8,-,N/A,,Mostly Cloudy,250,2013-07-09 08:30:00
4:00 PM,84.2,73.4,70,29.68,6.2,WSW,5.8,-,N/A,,Mostly Cloudy,250,2013-07-09 09:00:00
4:30 PM,84.2,69.8,62,29.68,6.2,SW,5.8,-,N/A,,Mostly Cloudy,220,2013-07-09 09:30:00
5:00 PM,84.2,73.4,70,29.68,6.2,WSW,4.6,-,N/A,,Mostly Cloudy,250,2013-07-09 10:00:00
5:30 PM,82.4,73.4,74,29.68,6.2,WSW,4.6,-,N/A,,Mostly Cloudy,250,2013-07-09 10:30:00
6:00 PM,82.4,73.4,74,29.68,6.2,WSW,4.6,-,N/A,,Scattered Clouds,250,2013-07-09 11:00:00
6:30 PM,80.6,71.6,74,29.68,6.2,WSW,4.6,-,N/A,,Scattered Clouds,240,2013-07-09 11:30:00
7:00 PM,80.6,73.4,79,29.71,6.2,WSW,1.2,-,N/A,,Scattered Clouds,250,2013-07-09 12:00:00
7:30 PM,80.6,73.4,79,29.71,5.6,WSW,3.5,-,N/A,,Scattered Clouds,240,2013-07-09 12:30:00
8:00 PM,80.6,71.6,74,29.74,5.6,SSW,1.2,-,N/A,,Scattered Clouds,200,2013-07-09 13:00:00
8:30 PM,80.6,71.6,74,29.74,5.6,WSW,3.5,-,N/A,,Scattered Clouds,250,2013-07-09 13:30:00
9:00 PM,80.6,71.6,74,29.74,5.6,WSW,1.2,-,N/A,,Scattered Clouds,240,2013-07-09 14:00:00
9:30 PM,78.8,71.6,78,29.74,5.6,South,1.2,-,N/A,,Scattered Clouds,190,2013-07-09 14:30:00